Group_ship,Cruise,JD_GMT,Date_DDMMYYYY,TIME_HH:MM:SS,Lat_dec_degree,Long_dec_degree,xCO2eq_ppm,xCO2a_ppm,Pres_Equi_hPa,Pres_sealevel_hPa,EqTemp_C,SST(TSG)_C,Sal(TSG)_Permil,Water_flow_l/min,Gasflow_IR_ml/min,Temp_IR_C,Pres_IR_hPa,Ship_heading_true_degree,Ship_speed_knot,Wind_dir_rel_degree,Wind_speed_rel_m/s,fCO2W@SST_uatm,Qcflag_water,fCO2a_uatm,Qcflag_air,dfCO2_uatm,Fluoro_ug/l,Wind_speed_true_m/s,Wind_dir_true_degree,Air_temp_C,Oxygen
AOML_Explorer,Ex0743N,294.991,21102007,23:47:10,40.395,-73.768,351.15,-9.00,1022.57,1021.30,19.09,18.90,31.698,1.626,102.839,31.430,1022.572,-9.000,-9.000,49.000,18.529,343.02,2,-9.00,9,-9.00,0.41,14.47,220.71,19.63,277.34
AOML_Explorer,Ex0743N,294.993,21102007,23:49:43,40.395,-73.768,343.07,-9.00,1022.69,1021.30,19.10,18.92,31.734,1.625,102.849,31.433,1022.688,-9.000,-9.000,50.000,18.529,335.25,2,-9.00,9,-9.00,0.39,14.64,221.73,19.63,276.37
AOML_Explorer,Ex0743N,294.995,21102007,23:52:16,40.395,-73.768,338.14,-9.00,1022.67,1021.30,19.13,18.88,31.823,1.598,102.898,31.437,1022.667,-9.000,-9.000,46.000,18.529,329.51,2,-9.00,9,-9.00,0.34,14.00,217.45,19.6,273.07
AOML_Explorer,Ex0743N,294.996,21102007,23:54:49,40.395,-73.768,337.83,-9.00,1022.82,1021.40,19.13,18.79,31.946,1.603,102.482,31.444,1022.822,-9.000,-9.000,50.000,18.529,328.06,2,-9.00,9,-9.00,0.38,14.71,221.98,19.6,267.98
AOML_Explorer,Ex0743N,294.998,21102007,23:57:22,40.395,-73.768,341.33,-9.00,1022.55,1021.30,19.09,18.70,31.923,1.539,101.211,31.452,1022.555,-9.000,-9.000,48.000,19.044,330.59,2,-9.00,9,-9.00,0.36,14.85,219.07,19.6,265.67
AOML_Explorer,Ex0743N,295.000,21102007,23:59:55,40.395,-73.768,350.38,-9.00,1022.35,1021.50,19.04,18.69,31.906,1.585,100.866,31.459,1022.346,-9.000,-9.000,47.000,19.044,340.00,2,-9.00,9,-9.00,0.37,14.69,218.20,19.58,265.29
AOML_Explorer,Ex0743N,295.015,22102007,0:21:40,40.127,-73.454,355.27,-9.00,1023.06,1021.60,18.97,18.62,32.138,1.589,102.904,31.553,1023.064,133.400,19.200,50.000,19.044,344.92,2,-9.00,9,-9.00,0.31,15.08,216.46,19.59,267.52
AOML_Explorer,Ex0743N,295.017,22102007,0:24:13,40.118,-73.441,354.66,-9.00,1022.98,1021.70,18.91,18.64,32.119,1.558,102.937,31.549,1022.983,136.500,19.100,49.000,18.015,345.49,2,-9.00,9,-9.00,0.34,14.11,221.12,19.58,267.47
AOML_Explorer,Ex0743N,295.019,22102007,0:26:46,40.108,-73.430,354.54,-9.00,1022.80,1021.70,18.86,18.58,32.122,1.578,102.678,31.553,1022.801,138.900,19.000,50.000,19.044,345.20,2,-9.00,9,-9.00,0.39,15.04,221.50,19.6,268.82
AOML_Explorer,Ex0743N,295.020,22102007,0:29:19,40.097,-73.418,354.60,-9.00,1023.36,1021.70,18.86,18.50,32.014,1.597,102.156,31.555,1023.363,138.900,19.100,50.000,18.529,344.29,2,-9.00,9,-9.00,0.47,14.62,222.53,19.57,271.47
AOML_Explorer,Ex0743N,295.022,22102007,0:31:52,40.087,-73.407,354.44,-9.00,1022.90,1021.70,18.80,18.53,32.006,1.622,101.936,31.558,1022.902,139.100,19.100,49.000,19.044,345.37,2,-9.00,9,-9.00,0.45,14.87,220.57,19.58,275.97
AOML_Explorer,Ex0743N,295.024,22102007,0:34:25,40.077,-73.395,353.22,-9.00,1022.89,1021.60,18.78,18.55,32.007,1.609,101.853,31.562,1022.895,138.900,19.100,52.000,18.529,344.64,2,-9.00,9,-9.00,0.46,14.92,224.53,19.58,277.14
AOML_Explorer,Ex0743N,295.026,22102007,0:36:58,40.067,-73.383,350.80,-9.00,1023.07,1021.80,18.80,18.54,32.038,1.611,101.273,31.568,1023.073,139.000,19.100,47.000,18.015,341.92,2,-9.00,9,-9.00,0.40,13.64,220.50,19.58,276.10
AOML_Explorer,Ex0743N,295.027,22102007,0:39:31,40.056,-73.372,348.36,-9.00,1023.04,1021.70,18.81,18.52,32.114,1.585,101.239,31.571,1023.040,139.000,19.100,50.000,18.015,339.15,2,-9.00,9,-9.00,0.35,14.12,223.51,19.54,271.65
AOML_Explorer,Ex0743N,295.029,22102007,0:42:04,40.046,-73.360,346.62,-9.00,1023.04,1021.90,18.80,18.50,32.132,1.608,101.330,31.573,1023.039,139.000,19.100,47.000,18.015,337.37,2,-9.00,9,-9.00,0.33,13.64,220.37,19.51,269.59
AOML_Explorer,Ex0743N,295.031,22102007,0:44:37,40.036,-73.349,349.52,-9.00,1023.10,1021.80,18.78,18.55,32.101,1.570,101.434,31.573,1023.102,135.500,19.100,48.000,18.015,341.02,2,-9.00,9,-9.00,0.32,13.70,217.18,19.52,269.80
AOML_Explorer,Ex0743N,295.033,22102007,0:47:10,40.026,-73.336,351.79,-9.00,1023.19,1021.80,18.78,18.49,32.176,1.590,101.331,31.574,1023.186,134.500,19.100,49.000,17.500,342.58,2,-9.00,9,-9.00,0.25,13.55,219.36,19.49,268.02
AOML_Explorer,Ex0743N,295.035,22102007,0:49:43,40.017,-73.323,351.64,-9.00,1023.32,1021.80,18.79,18.58,32.229,1.532,101.257,31.576,1023.316,134.500,19.300,53.000,17.500,343.45,2,-9.00,9,-9.00,0.24,14.25,223.90,19.47,265.94
AOML_Explorer,Ex0743N,295.036,22102007,0:52:16,40.007,-73.311,354.13,-9.00,1023.19,1021.80,18.78,18.63,32.261,1.540,101.167,31.574,1023.189,134.500,19.400,51.000,17.500,346.74,2,-9.00,9,-9.00,0.24,13.92,222.30,19.47,264.48
AOML_Explorer,Ex0743N,295.038,22102007,0:54:49,39.997,-73.298,358.74,-9.00,1023.20,1021.90,18.83,18.60,32.318,1.512,101.617,31.573,1023.202,134.700,19.500,50.000,17.500,350.20,2,-9.00,9,-9.00,0.21,13.71,221.18,19.43,262.69
AOML_Explorer,Ex0743N,295.040,22102007,0:57:22,39.988,-73.285,362.98,-9.00,1023.30,1021.90,18.86,18.62,32.360,1.486,101.658,31.575,1023.298,134.700,19.600,51.000,18.015,354.11,2,-9.00,9,-9.00,0.21,14.31,221.32,19.42,261.11
AOML_Explorer,Ex0743N,295.042,22102007,0:59:55,39.978,-73.272,366.64,-9.00,1023.39,1022.00,18.86,18.62,32.372,1.468,104.190,31.573,1023.388,135.100,19.600,53.000,17.500,357.85,2,-9.00,9,-9.00,0.21,14.19,224.50,19.42,260.58
AOML_Explorer,Ex0743N,295.057,22102007,1:21:40,39.895,-73.164,380.00,-9.00,1023.57,1022.20,19.00,18.74,32.477,1.429,102.925,31.602,1023.573,134.800,19.300,53.000,16.985,370.52,2,-9.00,9,-9.00,0.20,13.84,224.87,19.11,260.17
AOML_Explorer,Ex0743N,295.058,22102007,1:24:13,39.885,-73.151,375.74,-9.00,1023.58,1022.30,18.96,18.73,32.427,1.449,103.081,31.597,1023.577,134.800,19.200,53.000,16.470,366.90,2,-9.00,9,-9.00,0.24,13.40,226.27,19.11,260.27
AOML_Explorer,Ex0743N,295.060,22102007,1:26:46,39.876,-73.139,374.25,-9.00,1023.61,1022.20,18.99,18.78,32.384,1.449,102.914,31.598,1023.609,134.000,19.200,49.000,17.500,365.75,2,-9.00,9,-9.00,0.24,13.62,219.51,19.09,261.13
AOML_Explorer,Ex0743N,295.062,22102007,1:29:19,39.866,-73.126,373.73,-9.00,1023.74,1022.30,19.00,18.76,32.380,1.457,103.005,31.598,1023.736,135.300,19.400,52.000,16.985,364.82,2,-9.00,9,-9.00,0.23,13.65,224.74,19.09,261.73
AOML_Explorer,Ex0743N,295.064,22102007,1:31:52,39.856,-73.114,372.30,-9.00,1023.57,1022.20,19.02,18.85,32.388,1.452,102.527,31.592,1023.573,135.000,19.500,52.000,16.985,364.26,2,-9.00,9,-9.00,0.21,13.67,224.99,19.06,261.68
AOML_Explorer,Ex0743N,295.066,22102007,1:34:25,39.846,-73.101,371.20,-9.00,1023.71,1022.40,19.02,18.84,32.451,1.418,102.701,31.587,1023.709,135.000,19.500,51.000,17.500,363.13,2,-9.00,9,-9.00,0.19,13.93,222.93,19.06,261.13
AOML_Explorer,Ex0743N,295.067,22102007,1:36:58,39.836,-73.088,370.15,-9.00,1023.90,1022.30,19.07,18.81,32.470,1.457,102.564,31.582,1023.905,135.300,19.600,51.000,17.500,361.07,2,-9.00,9,-9.00,0.20,13.89,223.09,19.05,260.32
AOML_Explorer,Ex0743N,295.069,22102007,1:39:31,39.827,-73.076,370.42,-9.00,1023.67,1022.40,19.06,18.83,32.457,1.428,102.484,31.574,1023.671,135.600,19.600,55.000,18.015,361.52,2,-9.00,9,-9.00,0.22,14.99,225.95,19.05,260.71
AOML_Explorer,Ex0743N,295.071,22102007,1:42:04,39.817,-73.063,370.86,-9.00,1023.73,1022.40,19.05,18.84,32.448,1.444,102.519,31.565,1023.734,135.700,19.600,53.000,16.985,362.45,2,-9.00,9,-9.00,0.22,13.74,226.04,19.04,260.97
AOML_Explorer,Ex0743N,295.073,22102007,1:44:37,39.807,-73.051,371.19,-9.00,1023.88,1022.30,19.06,18.77,32.445,1.451,102.224,31.561,1023.883,135.900,19.500,55.000,17.500,361.60,2,-9.00,9,-9.00,0.24,14.48,227.03,19.03,261.29
AOML_Explorer,Ex0743N,295.074,22102007,1:47:10,39.797,-73.038,370.94,-9.00,1023.61,1022.40,19.06,18.83,32.400,1.455,102.486,31.554,1023.609,135.600,19.500,56.000,18.015,361.98,2,-9.00,9,-9.00,0.25,15.08,226.60,19.03,261.88
AOML_Explorer,Ex0743N,295.076,22102007,1:49:43,39.787,-73.026,370.51,-9.00,1023.82,1022.40,19.02,18.87,32.431,1.439,102.850,31.546,1023.817,135.600,19.500,55.000,17.500,363.08,2,-9.00,9,-9.00,0.19,14.51,226.77,19.01,261.99
AOML_Explorer,Ex0743N,295.078,22102007,1:52:16,39.777,-73.013,369.30,-9.00,1023.67,1022.50,19.06,18.93,32.488,1.458,102.604,31.543,1023.668,135.600,19.500,53.000,16.985,361.97,2,-9.00,9,-9.00,0.18,13.73,225.76,18.99,260.61
AOML_Explorer,Ex0743N,295.080,22102007,1:54:49,39.767,-73.001,367.53,-9.00,1023.76,1022.60,19.10,18.92,32.548,1.434,102.428,31.532,1023.762,135.000,19.500,52.000,16.985,359.51,2,-9.00,9,-9.00,0.15,13.62,224.96,18.98,258.92
AOML_Explorer,Ex0743N,295.082,22102007,1:57:22,39.757,-72.988,367.54,-9.00,1024.03,1022.40,19.14,18.92,32.593,1.428,102.352,31.525,1024.026,135.100,19.400,54.000,16.985,359.15,2,-9.00,9,-9.00,0.15,14.00,227.03,18.98,257.84
AOML_Explorer,Ex0743N,295.083,22102007,1:59:55,39.749,-72.977,369.13,-9.00,1023.97,1022.60,19.13,18.92,32.647,1.430,102.820,31.519,1023.967,-9.000,-9.000,52.000,17.500,360.70,2,-9.00,9,-9.00,0.14,14.04,223.65,18.93,256.85
AOML_Explorer,Ex0743N,295.098,22102007,2:21:40,39.664,-72.868,376.93,-9.00,1024.35,1022.80,18.82,18.49,32.996,1.430,103.300,31.519,1024.349,135.500,19.600,50.000,16.985,366.84,2,-9.00,9,-9.00,0.11,13.23,223.24,18.74,256.04
AOML_Explorer,Ex0743N,295.100,22102007,2:24:13,39.653,-72.856,376.72,-9.00,1024.43,1022.90,18.78,18.50,32.982,1.417,103.403,31.518,1024.430,135.600,19.500,42.000,16.470,367.45,2,-9.00,9,-9.00,0.10,11.34,215.39,18.73,256.06
AOML_Explorer,Ex0743N,295.102,22102007,2:26:46,39.644,-72.843,376.61,-9.00,1024.44,1023.00,18.77,18.55,32.996,1.390,103.462,31.511,1024.435,135.800,19.600,49.000,16.470,368.28,2,-9.00,9,-9.00,0.10,12.56,223.34,18.72,256.24
AOML_Explorer,Ex0743N,295.104,22102007,2:29:19,39.634,-72.831,376.43,-9.00,1024.45,1022.90,18.79,18.47,33.023,1.406,103.242,31.505,1024.451,135.800,19.600,47.000,16.470,366.48,2,-9.00,9,-9.00,0.10,12.23,221.32,18.72,256.50
AOML_Explorer,Ex0743N,295.105,22102007,2:31:52,39.624,-72.818,376.75,-9.00,1024.47,1023.00,18.80,18.43,33.022,1.459,103.269,31.498,1024.475,135.800,19.500,50.000,15.956,366.16,2,-9.00,9,-9.00,0.10,12.33,225.70,18.72,256.34
AOML_Explorer,Ex0743N,295.107,22102007,2:34:25,39.614,-72.806,376.87,-9.00,1024.41,1023.00,18.74,18.44,32.995,1.417,103.075,31.489,1024.411,135.600,19.400,47.000,16.470,367.26,2,-9.00,9,-9.00,0.11,12.26,220.74,18.73,256.43
AOML_Explorer,Ex0743N,295.109,22102007,2:36:58,39.604,-72.794,376.88,-9.00,1024.72,1023.00,18.70,18.48,32.953,1.401,103.169,31.478,1024.721,135.200,19.400,49.000,16.470,368.62,2,-9.00,9,-9.00,0.13,12.60,222.52,18.7,256.23
AOML_Explorer,Ex0743N,295.111,22102007,2:39:31,39.594,-72.781,376.76,-9.00,1024.69,1022.90,18.70,18.69,32.894,1.403,103.100,31.469,1024.686,134.100,19.300,48.000,15.956,371.68,2,-9.00,9,-9.00,0.13,12.09,221.97,18.7,256.27
AOML_Explorer,Ex0743N,295.113,22102007,2:42:04,39.585,-72.768,376.72,-9.00,1024.61,1023.10,18.76,18.66,32.904,1.406,103.004,31.464,1024.608,133.800,19.400,48.000,15.956,370.28,2,-9.00,9,-9.00,0.15,12.22,222.64,18.73,256.89
AOML_Explorer,Ex0743N,295.114,22102007,2:44:37,39.575,-72.756,377.21,-9.00,1024.71,1023.10,18.90,18.77,32.857,1.440,102.864,31.457,1024.712,134.000,19.600,48.000,15.441,370.14,2,-9.00,9,-9.00,0.13,11.72,224.41,18.75,256.61
AOML_Explorer,Ex0743N,295.116,22102007,2:47:10,39.565,-72.743,378.03,-9.00,1024.56,1023.10,18.91,18.85,32.881,1.402,102.975,31.450,1024.564,133.700,19.700,52.000,15.441,371.98,2,-9.00,9,-9.00,0.13,12.46,228.48,18.75,256.28
AOML_Explorer,Ex0743N,295.118,22102007,2:49:43,39.556,-72.730,378.32,-9.00,1024.57,1023.10,18.99,18.90,32.889,1.433,103.226,31.443,1024.571,133.800,19.800,48.000,16.470,371.85,2,-9.00,9,-9.00,0.12,12.57,221.83,18.73,256.21
AOML_Explorer,Ex0743N,295.120,22102007,2:52:16,39.546,-72.717,378.54,-9.00,1024.69,1023.20,19.07,18.91,32.902,1.399,103.216,31.435,1024.692,134.200,19.900,45.000,15.441,370.92,2,-9.00,9,-9.00,0.12,11.14,221.93,18.73,256.39
AOML_Explorer,Ex0743N,295.121,22102007,2:54:49,39.536,-72.704,378.91,-9.00,1024.77,1023.20,19.11,18.88,32.911,1.384,102.762,31.430,1024.770,134.800,19.800,48.000,15.441,370.28,2,-9.00,9,-9.00,0.12,11.56,224.98,18.69,256.19
AOML_Explorer,Ex0743N,295.123,22102007,2:57:22,39.526,-72.691,379.54,-9.00,1024.73,1023.10,19.12,18.85,32.929,1.394,102.591,31.422,1024.727,138.000,19.700,46.000,15.441,370.39,2,-9.00,9,-9.00,0.12,11.35,226.84,18.64,256.00
AOML_Explorer,Ex0743N,295.125,22102007,2:59:55,39.515,-72.681,379.65,-9.00,1024.85,1023.30,19.10,18.81,32.956,1.424,103.095,31.412,1024.853,147.400,18.800,44.000,15.441,370.20,2,-9.00,9,-9.00,0.11,11.00,231.41,18.59,256.15
AOML_Explorer,Ex0743N,295.140,22102007,3:21:40,39.440,-72.705,376.88,-9.00,1024.99,1022.10,18.81,18.55,33.008,1.349,103.139,31.419,1024.992,271.400,13.400,326.000,13.382,368.18,2,-9.00,9,-9.00,0.12,8.64,209.06,18.46,256.06
AOML_Explorer,Ex0743N,295.142,22102007,3:24:13,39.440,-72.717,377.45,-9.00,1025.01,1022.10,18.82,18.57,32.999,1.344,103.244,31.415,1025.008,270.400,14.400,327.000,13.382,368.92,2,-9.00,9,-9.00,0.13,8.30,206.20,18.48,256.18
AOML_Explorer,Ex0743N,295.144,22102007,3:26:46,39.440,-72.731,377.87,-9.00,1025.03,1022.10,18.83,18.52,33.023,1.351,103.141,31.412,1025.032,270.300,15.600,326.000,13.382,368.41,2,-9.00,9,-9.00,0.12,8.19,201.30,18.52,256.25
AOML_Explorer,Ex0743N,295.145,22102007,3:29:19,39.440,-72.746,378.06,-9.00,1025.02,1023.30,18.83,18.44,33.042,1.378,102.957,31.405,1025.017,270.400,16.800,328.000,14.926,367.24,2,-9.00,9,-9.00,0.14,8.99,205.67,18.56,256.46
AOML_Explorer,Ex0743N,295.147,22102007,3:31:52,39.441,-72.762,378.29,-9.00,1024.91,1023.30,18.80,18.52,33.019,1.346,103.070,31.397,1024.913,270.400,18.000,331.000,15.441,369.12,2,-9.00,9,-9.00,0.12,8.77,208.14,18.62,256.30
AOML_Explorer,Ex0743N,295.149,22102007,3:34:25,39.441,-72.779,378.12,-9.00,1024.95,1023.30,18.75,18.49,33.048,1.360,102.894,31.391,1024.953,269.800,18.700,332.000,16.470,369.20,2,-9.00,9,-9.00,0.13,9.27,211.63,18.69,256.82
AOML_Explorer,Ex0743N,295.151,22102007,3:36:58,39.441,-72.796,377.89,-9.00,1024.86,1023.30,18.78,18.54,33.025,1.388,103.070,31.386,1024.857,269.500,18.800,333.000,16.470,369.28,2,-9.00,9,-9.00,0.12,9.10,211.92,18.73,256.69
AOML_Explorer,Ex0743N,295.152,22102007,3:39:31,39.441,-72.813,377.87,-9.00,1024.85,1023.30,18.76,18.70,32.955,1.352,102.835,31.377,1024.852,269.300,19.100,336.000,16.985,371.99,2,-9.00,9,-9.00,0.11,9.06,217.22,18.77,256.33
AOML_Explorer,Ex0743N,295.154,22102007,3:42:04,39.440,-72.831,377.85,-9.00,1024.87,1023.30,18.80,18.85,32.901,1.413,102.956,31.368,1024.866,269.200,19.300,338.000,16.470,373.80,2,-9.00,9,-9.00,0.12,8.28,219.07,18.83,256.09
AOML_Explorer,Ex0743N,295.156,22102007,3:44:37,39.441,-72.849,377.87,-9.00,1024.76,1023.30,18.93,18.92,32.881,1.367,102.843,31.358,1024.761,269.000,19.300,334.000,15.956,372.81,2,-9.00,9,-9.00,0.12,8.43,210.11,18.83,256.19
AOML_Explorer,Ex0743N,295.158,22102007,3:47:10,39.441,-72.866,378.06,-9.00,1024.90,1023.30,19.05,18.95,32.877,1.326,103.008,31.351,1024.904,269.800,19.200,336.000,15.441,371.56,2,-9.00,9,-9.00,0.12,7.76,211.19,18.85,255.76
AOML_Explorer,Ex0743N,295.160,22102007,3:49:43,39.440,-72.884,378.51,-9.00,1024.97,1023.30,19.12,18.99,32.885,1.353,102.777,31.341,1024.974,269.200,19.300,332.000,16.470,371.57,2,-9.00,9,-9.00,0.12,9.18,208.29,18.84,255.65
AOML_Explorer,Ex0743N,295.161,22102007,3:52:16,39.440,-72.902,378.95,-9.00,1024.87,1023.30,19.16,18.95,32.900,1.380,102.646,31.334,1024.874,270.100,19.300,332.000,15.956,370.62,2,-9.00,9,-9.00,0.12,8.76,207.20,18.86,255.59
AOML_Explorer,Ex0743N,295.163,22102007,3:54:49,39.441,-72.919,379.43,-9.00,1024.97,1023.30,19.19,18.96,32.893,1.371,102.918,31.325,1024.971,270.800,19.300,335.000,15.956,370.91,2,-9.00,9,-9.00,0.11,8.38,211.57,18.87,255.50
AOML_Explorer,Ex0743N,295.165,22102007,3:57:22,39.441,-72.937,379.38,-9.00,1024.98,1023.30,19.17,18.97,32.881,1.359,102.864,31.317,1024.975,269.900,19.200,331.000,15.956,371.22,2,-9.00,9,-9.00,0.11,8.94,205.41,18.89,255.22
AOML_Explorer,Ex0743N,295.167,22102007,3:59:55,39.441,-72.955,379.26,-9.00,1024.79,1023.30,19.17,19.00,32.839,1.367,102.536,31.313,1024.788,270.200,19.300,338.000,16.985,371.50,2,-9.00,9,-9.00,0.10,8.84,219.81,18.93,255.35
AOML_Explorer,Ex0743N,295.182,22102007,4:21:40,39.391,-73.076,381.39,-9.00,1024.83,1023.50,19.21,19.04,32.514,1.394,103.306,31.323,1024.829,219.400,18.300,4.000,17.500,373.56,2,-9.00,9,-9.00,0.12,8.16,225.33,18.98,254.82
AOML_Explorer,Ex0743N,295.183,22102007,4:24:13,39.381,-73.087,382.48,-9.00,1024.87,1023.60,19.24,19.07,32.480,1.387,103.264,31.321,1024.869,219.600,18.100,1.000,17.500,374.77,2,-9.00,9,-9.00,0.12,8.19,218.74,19,254.77
AOML_Explorer,Ex0743N,295.185,22102007,4:26:46,39.371,-73.097,383.43,-9.00,1024.84,1023.50,19.25,19.06,32.436,1.366,103.108,31.316,1024.839,219.500,18.100,4.000,17.500,375.21,2,-9.00,9,-9.00,0.13,8.24,225.71,18.99,254.61
AOML_Explorer,Ex0743N,295.187,22102007,4:29:19,39.361,-73.106,384.18,-9.00,1024.87,1023.50,19.27,19.00,32.433,1.344,102.896,31.312,1024.871,206.200,18.000,11.000,16.470,374.71,2,-9.00,9,-9.00,0.15,7.52,226.38,19,254.19
AOML_Explorer,Ex0743N,295.189,22102007,4:31:52,39.349,-73.112,385.17,-9.00,1024.83,1023.30,19.27,18.99,32.451,1.361,102.912,31.306,1024.833,191.600,18.100,14.000,16.985,375.64,2,-9.00,9,-9.00,0.15,8.21,217.59,19.04,254.35
AOML_Explorer,Ex0743N,295.191,22102007,4:34:25,39.336,-73.112,386.09,-9.00,1024.88,1023.50,19.23,19.06,32.398,1.359,102.810,31.300,1024.881,176.300,18.100,28.000,16.470,378.30,2,-9.00,9,-9.00,0.13,9.28,230.38,19.06,254.08
AOML_Explorer,Ex0743N,295.192,22102007,4:36:58,39.324,-73.111,386.99,-9.00,1024.81,1023.40,19.22,19.06,32.401,1.366,102.618,31.292,1024.814,171.100,18.300,28.000,15.956,379.20,2,-9.00,9,-9.00,0.12,8.83,228.32,19.07,254.07
AOML_Explorer,Ex0743N,295.194,22102007,4:39:31,39.311,-73.108,387.40,-9.00,1024.85,1023.50,19.26,19.06,32.416,1.371,102.863,31.286,1024.847,168.800,18.700,31.000,15.956,378.96,2,-9.00,9,-9.00,0.12,9.12,230.84,19.06,254.13
AOML_Explorer,Ex0743N,295.196,22102007,4:42:04,39.298,-73.104,387.25,-9.00,1024.94,1023.50,19.26,19.07,32.434,1.377,102.665,31.276,1024.940,165.500,18.900,25.000,15.956,379.03,2,-9.00,9,-9.00,0.12,8.22,219.14,19,254.49
AOML_Explorer,Ex0743N,295.198,22102007,4:44:37,39.285,-73.100,386.89,-9.00,1024.93,1023.50,19.26,19.08,32.482,1.369,103.071,31.273,1024.930,165.600,19.100,28.000,16.985,378.81,2,-9.00,9,-9.00,0.12,9.48,221.51,18.92,254.50
AOML_Explorer,Ex0743N,295.199,22102007,4:47:10,39.272,-73.095,386.53,-9.00,1024.77,1023.70,19.28,19.04,32.535,1.338,103.074,31.266,1024.772,165.000,19.300,33.000,16.470,377.53,2,-9.00,9,-9.00,0.12,9.80,230.97,18.89,254.75
AOML_Explorer,Ex0743N,295.201,22102007,4:49:43,39.259,-73.091,386.15,-9.00,1024.89,1023.60,19.28,19.09,32.564,1.375,102.944,31.256,1024.893,165.300,19.200,31.000,16.470,377.93,2,-9.00,9,-9.00,0.11,9.45,228.31,18.9,254.73
AOML_Explorer,Ex0743N,295.203,22102007,4:52:16,39.246,-73.087,385.54,-9.00,1024.93,1023.50,19.26,19.06,32.634,1.385,102.888,31.252,1024.926,164.800,19.200,28.000,16.470,377.15,2,-9.00,9,-9.00,0.11,8.98,222.06,18.92,254.58
AOML_Explorer,Ex0743N,295.205,22102007,4:54:49,39.233,-73.081,385.11,-9.00,1024.88,1023.60,19.29,18.84,32.775,1.372,102.872,31.245,1024.882,159.100,19.100,38.000,15.956,372.93,2,-9.00,9,-9.00,0.11,10.07,232.12,18.91,254.76
AOML_Explorer,Ex0743N,295.207,22102007,4:57:22,39.221,-73.074,384.61,-9.00,1024.66,1023.30,19.25,18.85,32.754,1.321,103.277,31.241,1024.655,151.500,19.000,38.000,14.926,373.03,2,-9.00,9,-9.00,0.11,9.20,227.60,18.9,254.96
AOML_Explorer,Ex0743N,295.208,22102007,4:59:55,39.210,-73.065,383.61,-9.00,1024.56,1023.20,19.12,18.84,32.743,1.333,103.365,31.242,1024.556,143.300,19.100,42.000,15.441,374.04,2,-9.00,9,-9.00,0.11,10.33,223.25,18.85,254.86
AOML_Explorer,Ex0743N,295.223,22102007,5:21:40,39.141,-72.945,378.62,-9.00,1024.70,1023.00,18.71,18.46,33.036,1.310,103.014,31.252,1024.704,117.500,19.400,46.000,12.868,369.78,2,-9.00,9,-9.00,0.10,9.22,213.52,18.7,255.38
AOML_Explorer,Ex0743N,295.225,22102007,5:24:13,39.135,-72.929,378.86,-9.00,1024.71,1023.00,18.74,18.40,33.070,1.289,103.253,31.253,1024.712,117.300,19.500,48.000,13.382,368.76,2,-9.00,9,-9.00,0.10,9.94,213.45,18.71,255.31
AOML_Explorer,Ex0743N,295.227,22102007,5:26:46,39.129,-72.913,379.10,-9.00,1024.80,1023.20,18.74,18.39,33.104,1.322,103.197,31.251,1024.802,117.000,19.600,49.000,13.897,368.87,2,-9.00,9,-9.00,0.10,10.37,211.31,18.7,255.11
AOML_Explorer,Ex0743N,295.229,22102007,5:29:19,39.123,-72.897,378.96,-9.00,1024.70,1023.10,18.70,18.31,33.160,1.316,103.227,31.251,1024.698,114.100,19.800,46.000,12.868,368.10,2,-9.00,9,-9.00,0.14,9.29,211.78,18.66,255.30
AOML_Explorer,Ex0743N,295.230,22102007,5:31:52,39.117,-72.880,378.60,-9.00,1024.66,1023.20,18.68,18.40,33.107,1.297,103.139,31.254,1024.659,114.200,20.700,39.000,12.868,369.52,2,-9.00,9,-9.00,0.12,8.04,208.59,18.63,254.93
AOML_Explorer,Ex0743N,295.232,22102007,5:34:25,39.111,-72.863,377.50,-9.00,1024.74,1023.10,18.63,18.50,33.075,1.369,103.239,31.248,1024.744,114.600,20.700,41.000,12.868,370.65,2,-9.00,9,-9.00,0.10,8.31,210.22,18.6,254.98
AOML_Explorer,Ex0743N,295.234,22102007,5:36:58,39.105,-72.847,375.88,-9.00,1024.75,1023.20,18.67,18.64,33.050,1.361,103.188,31.248,1024.746,114.600,19.300,40.000,12.868,370.53,2,-9.00,9,-9.00,0.08,8.10,204.39,18.55,255.05
AOML_Explorer,Ex0743N,295.236,22102007,5:39:31,39.099,-72.831,375.58,-9.00,1024.76,1023.10,18.75,18.55,33.101,1.384,103.417,31.246,1024.764,116.100,19.000,43.000,12.353,367.65,2,-9.00,9,-9.00,0.10,8.39,211.03,18.54,255.54
AOML_Explorer,Ex0743N,295.238,22102007,5:42:04,39.093,-72.816,375.92,-9.00,1024.73,1023.10,18.86,18.49,33.040,1.385,103.308,31.244,1024.734,116.800,19.100,40.000,12.868,365.45,2,-9.00,9,-9.00,0.10,8.13,205.91,18.52,255.43
AOML_Explorer,Ex0743N,295.239,22102007,5:44:37,39.086,-72.800,376.95,-9.00,1024.74,1023.10,18.82,18.38,33.011,1.399,103.045,31.244,1024.737,118.600,20.100,40.000,12.868,365.40,2,-9.00,9,-9.00,0.10,8.16,211.43,18.52,255.71
AOML_Explorer,Ex0743N,295.241,22102007,5:47:10,39.079,-72.783,377.27,-9.00,1024.77,1023.20,18.76,18.39,32.984,1.335,103.108,31.242,1024.770,118.900,21.100,39.000,13.382,366.86,2,-9.00,9,-9.00,0.10,8.21,210.91,18.5,255.67
AOML_Explorer,Ex0743N,295.243,22102007,5:49:43,39.072,-72.766,377.46,-9.00,1024.75,1023.30,18.67,18.32,33.079,1.364,103.070,31.241,1024.747,118.800,21.600,36.000,13.382,367.35,2,-9.00,9,-9.00,0.11,7.72,210.03,18.42,255.86
AOML_Explorer,Ex0743N,295.245,22102007,5:52:16,39.064,-72.749,377.92,-9.00,1024.82,1023.10,18.66,18.06,33.117,1.372,102.965,31.238,1024.816,119.700,21.700,39.000,12.868,363.92,2,-9.00,9,-9.00,0.12,8.06,217.08,18.36,256.17
AOML_Explorer,Ex0743N,295.246,22102007,5:54:49,39.057,-72.732,377.88,-9.00,1024.75,1023.30,18.56,18.04,33.095,1.382,103.289,31.236,1024.752,119.400,21.900,39.000,12.868,365.16,2,-9.00,9,-9.00,0.11,8.05,217.48,18.32,255.91
AOML_Explorer,Ex0743N,295.248,22102007,5:57:22,39.049,-72.715,376.63,-9.00,1024.83,1023.30,18.39,18.01,33.089,1.469,102.940,31.234,1024.829,119.300,21.900,31.000,13.897,366.25,2,-9.00,9,-9.00,0.12,7.04,203.12,18.26,256.23
AOML_Explorer,Ex0743N,295.250,22102007,5:59:55,39.041,-72.698,374.80,-9.00,1024.76,1023.40,18.34,17.86,33.047,1.431,103.147,31.228,1024.757,119.100,21.900,34.000,13.382,362.89,2,-9.00,9,-9.00,0.09,7.34,209.46,18.15,256.68
AOML_Explorer,Ex0743N,295.265,22102007,6:21:40,38.977,-72.551,362.14,-9.00,1024.86,1023.30,18.72,18.44,33.469,1.421,103.151,31.247,1024.857,119.200,21.800,37.000,12.353,353.31,2,-9.00,9,-9.00,0.10,7.53,219.17,18.46,257.41
AOML_Explorer,Ex0743N,295.267,22102007,6:24:13,38.970,-72.533,361.73,-9.00,1024.81,1023.20,18.85,18.62,33.399,1.453,103.243,31.249,1024.805,119.200,21.800,36.000,12.868,353.66,2,-9.00,9,-9.00,0.10,7.60,215.14,18.57,257.51
AOML_Explorer,Ex0743N,295.269,22102007,6:26:46,38.962,-72.516,361.51,-9.00,1024.81,1023.20,18.75,18.83,33.521,1.454,103.310,31.250,1024.813,119.200,21.700,37.000,12.868,357.96,2,-9.00,9,-9.00,0.10,7.73,215.51,18.67,256.37